Millville, NJ

4:17 AM EST on February 14, 2016 (GMT -0500)
Millville Municipal

Weather History for KMIV - February, 2014

Change the Weather History Date:

Sunday, February 16, 2014

  Actual Average Record
Temperature  
Mean Temperature 26 °F -  
Max Temperature 30 °F 44 °F 73 °F (1954)
Min Temperature 21 °F 26 °F 0 °F (1978)
Degree Days  
Heating Degree Days 40    
Moisture  
Dew Point 14 °F    
Average Humidity 59    
Maximum Humidity 75    
Minimum Humidity 47    
Precipitation  
Precipitation 0.00 in - - ()
Sea Level Pressure  
Sea Level Pressure 30.02 in    
Wind  
Wind Speed 12 mph (WNW)    
Max Wind Speed 16 mph    
Max Gust Speed 24 mph    
Visibility 10 miles    
Events      
Averages and records for this station are not official NWS values.
T = Trace of Precipitation, MM = Missing Value Source: NWS Daily Summary

Daily Weather History Graph

Daily Weather History Graph

Search for Another Location

Airport or City:

Trip Planner

Search our weather history database for the weather conditions in past years. The results will help you decide how hot, cold, wet, or windy it might be!

Date:

Astronomy

Feb. 16, 2014 Rise Set
Actual Time 6:50 AM EST 5:38 PM EST
Civil Twilight 6:23 AM EST 6:05 PM EST
Nautical Twilight 5:52 AM EST 6:37 PM EST
Astronomical Twilight 5:21 AM EST 7:08 PM EST
Moon 7:31 PM EST (2/16) 7:20 AM EST (2/16)
Length of Visible Light 11h 42m
Length of Day
10h 47m
Full, 97% of the Moon is Illuminated
Feb 16
Full
Feb 22
Last Quarter
Mar 1
New
Mar 8
First Quarter
Mar 16
Full

Hourly Weather History & Observations

Time (EST) Temp. Windchill Dew Point Humidity Pressure Visibility Wind Dir Wind Speed Gust Speed Precip Events Conditions
12:54 AM 28.0 °F 17.0 °F 16.0 °F 61% 29.88 in 10.0 mi WNW 13.8 mph 24.2 mph N/A   Clear
1:54 AM 26.1 °F 14.0 °F 15.1 °F 63% 29.90 in 10.0 mi WNW 15.0 mph 21.9 mph N/A   Clear
2:54 AM 25.0 °F 13.6 °F 14.0 °F 63% 29.92 in 10.0 mi WNW 12.7 mph - N/A   Clear
3:54 AM 24.1 °F 12.0 °F 12.9 °F 62% 29.95 in 10.0 mi WNW 13.8 mph - N/A   Clear
4:54 AM 23.0 °F 11.7 °F 12.0 °F 63% 29.96 in 10.0 mi WNW 11.5 mph - N/A   Clear
5:54 AM 23.0 °F 13.1 °F 10.9 °F 60% 29.96 in 10.0 mi NW 9.2 mph - N/A   Clear
6:54 AM 21.9 °F 12.5 °F 10.9 °F 63% 29.99 in 10.0 mi NW 8.1 mph - N/A   Clear
7:54 AM 23.0 °F 12.4 °F 10.9 °F 60% 30.02 in 10.0 mi WNW 10.4 mph - N/A   Clear
8:54 AM 24.1 °F 11.0 °F 10.0 °F 55% 30.03 in 10.0 mi NW 16.1 mph - N/A   Clear
9:54 AM 26.1 °F 15.6 °F 12.9 °F 58% 30.05 in 10.0 mi WNW 11.5 mph - N/A   Clear
10:54 AM 28.0 °F 19.3 °F 15.1 °F 58% 30.04 in 10.0 mi West 9.2 mph - N/A   Clear
11:54 AM 28.9 °F 19.2 °F 14.0 °F 54% 30.03 in 10.0 mi WNW 11.5 mph - N/A   Clear
12:54 PM 30.9 °F 20.7 °F 15.1 °F 52% 30.01 in 10.0 mi WNW 13.8 mph - N/A   Clear
1:54 PM 30.0 °F 20.0 °F 14.0 °F 51% 30.01 in 10.0 mi WNW 12.7 mph - N/A   Clear
2:54 PM 30.0 °F 20.5 °F 12.9 °F 49% 29.99 in 10.0 mi WNW 11.5 mph - N/A   Clear
3:54 PM 30.0 °F 21.1 °F 12.9 °F 49% 29.99 in 10.0 mi WNW 10.4 mph - N/A   Partly Cloudy
4:54 PM 30.0 °F 21.1 °F 12.0 °F 47% 30.01 in 10.0 mi WNW 10.4 mph - N/A   Overcast
5:54 PM 28.9 °F 23.9 °F 12.9 °F 51% 30.04 in 10.0 mi WNW 4.6 mph - N/A   Overcast
6:54 PM 27.0 °F 23.0 °F 16.0 °F 63% 30.06 in 10.0 mi West 3.5 mph - N/A   Overcast
7:54 PM 28.9 °F 21.1 °F 19.0 °F 67% 30.08 in 10.0 mi WNW 8.1 mph - N/A   Overcast
8:54 PM 28.0 °F 19.3 °F 17.1 °F 63% 30.10 in 10.0 mi NW 9.2 mph - N/A   Overcast
9:54 PM 26.1 °F 16.8 °F 17.1 °F 69% 30.12 in 10.0 mi WNW 9.2 mph - N/A   Clear
10:54 PM 26.1 °F 18.4 °F 17.1 °F 69% 30.14 in 10.0 mi WNW 6.9 mph - N/A   Clear
11:54 PM 25.0 °F 15.5 °F 18.0 °F 75% 30.17 in 10.0 mi WNW 9.2 mph - N/A   Clear